Year,Month,Day,Hour,Minute,Value (Times are PST for temperature in C)
2009,04,27,00,00,6.60
2009,04,27,00,01,6.50
2009,04,27,00,02,6.50
2009,04,27,00,03,6.40
2009,04,27,00,04,6.40
2009,04,27,00,05,6.40
2009,04,27,00,06,6.40
2009,04,27,00,07,6.40
2009,04,27,00,08,6.40
2009,04,27,00,09,6.40
2009,04,27,00,10,6.40
2009,04,27,00,11,6.40
2009,04,27,00,12,6.40
2009,04,27,00,13,6.40
2009,04,27,00,14,6.40
2009,04,27,00,15,6.30
2009,04,27,00,16,6.30
2009,04,27,00,17,6.30
2009,04,27,00,18,6.30
2009,04,27,00,19,6.30
2009,04,27,00,20,6.30
2009,04,27,00,21,6.30
2009,04,27,00,22,6.30
2009,04,27,00,23,6.30
2009,04,27,00,24,6.20
2009,04,27,00,25,6.20
2009,04,27,00,26,6.20
2009,04,27,00,27,6.20
2009,04,27,00,28,6.20
2009,04,27,00,29,6.20
2009,04,27,00,30,6.20
2009,04,27,00,31,6.20
2009,04,27,00,32,6.10
2009,04,27,00,33,6.10
2009,04,27,00,34,6.10
2009,04,27,00,35,6.10
2009,04,27,00,36,6.10
2009,04,27,00,37,6.10
2009,04,27,00,38,6.10
2009,04,27,00,39,6.00
2009,04,27,00,40,6.00
2009,04,27,00,41,6.00
2009,04,27,00,42,6.00
2009,04,27,00,43,6.00
2009,04,27,00,44,6.10
2009,04,27,00,45,6.10
2009,04,27,00,46,6.10
2009,04,27,00,47,6.10
2009,04,27,00,48,6.10
2009,04,27,00,49,6.10
2009,04,27,00,50,6.10
2009,04,27,00,51,6.10
2009,04,27,00,52,6.10
2009,04,27,00,53,6.10
2009,04,27,00,54,6.10
2009,04,27,00,55,6.10
2009,04,27,00,56,6.00
2009,04,27,00,57,6.00
2009,04,27,00,58,6.00
2009,04,27,00,59,6.00
2009,04,27,01,00,5.90
2009,04,27,01,01,5.90
2009,04,27,01,02,5.90
2009,04,27,01,03,5.90
2009,04,27,01,04,5.90
2009,04,27,01,05,5.90
2009,04,27,01,06,5.90
2009,04,27,01,07,5.90
2009,04,27,01,08,5.90
2009,04,27,01,09,5.90
2009,04,27,01,10,5.80
2009,04,27,01,11,5.80
2009,04,27,01,12,5.80
2009,04,27,01,13,5.80
2009,04,27,01,14,5.80
2009,04,27,01,15,5.70
2009,04,27,01,16,5.70
2009,04,27,01,17,5.70
2009,04,27,01,18,5.60
2009,04,27,01,19,5.60
2009,04,27,01,20,5.50
2009,04,27,01,21,5.50
2009,04,27,01,22,5.40
2009,04,27,01,23,5.40
2009,04,27,01,24,5.40
2009,04,27,01,25,5.30
2009,04,27,01,26,5.30
2009,04,27,01,27,5.30
2009,04,27,01,28,5.20
2009,04,27,01,29,5.20
2009,04,27,01,30,5.20
2009,04,27,01,31,5.20
2009,04,27,01,32,5.20
2009,04,27,01,33,5.10
2009,04,27,01,34,5.10
2009,04,27,01,35,5.10
2009,04,27,01,36,5.10
2009,04,27,01,37,5.10
2009,04,27,01,38,5.00
2009,04,27,01,39,5.00
2009,04,27,01,40,5.00
2009,04,27,01,41,5.00
2009,04,27,01,42,4.90
2009,04,27,01,43,4.90
2009,04,27,01,44,4.90
2009,04,27,01,45,4.90
2009,04,27,01,46,4.90
2009,04,27,01,47,4.90
2009,04,27,01,48,4.90
2009,04,27,01,49,4.90
2009,04,27,01,50,4.90
2009,04,27,01,51,4.90
2009,04,27,01,52,4.90
2009,04,27,01,53,4.80
2009,04,27,01,54,4.80
2009,04,27,01,55,4.80
2009,04,27,01,56,4.80
2009,04,27,01,57,4.80
2009,04,27,01,58,4.80
2009,04,27,01,59,4.80
2009,04,27,02,00,4.80
2009,04,27,02,01,4.80
2009,04,27,02,02,4.70
2009,04,27,02,03,4.70
2009,04,27,02,04,4.70
2009,04,27,02,05,4.70
2009,04,27,02,06,4.70
2009,04,27,02,07,4.70
2009,04,27,02,08,4.70
2009,04,27,02,09,4.70
2009,04,27,02,10,4.70
2009,04,27,02,11,4.70
2009,04,27,02,12,4.70
2009,04,27,02,13,4.70
2009,04,27,02,14,4.70
2009,04,27,02,15,4.70
2009,04,27,02,16,4.70
2009,04,27,02,17,4.70
2009,04,27,02,18,4.70
2009,04,27,02,19,4.70
2009,04,27,02,20,4.60
2009,04,27,02,21,4.60
2009,04,27,02,22,4.60
2009,04,27,02,23,4.60
2009,04,27,02,24,4.60
2009,04,27,02,25,4.50
2009,04,27,02,26,4.50
2009,04,27,02,27,4.50
2009,04,27,02,28,4.50
2009,04,27,02,29,4.50
2009,04,27,02,30,4.50
2009,04,27,02,31,4.50
2009,04,27,02,32,4.50
2009,04,27,02,33,4.50
2009,04,27,02,34,4.50
2009,04,27,02,35,4.40
2009,04,27,02,36,4.40
2009,04,27,02,37,4.40
2009,04,27,02,38,4.40
2009,04,27,02,39,4.40
2009,04,27,02,40,4.40
2009,04,27,02,41,4.40
2009,04,27,02,42,4.40
2009,04,27,02,43,4.40
2009,04,27,02,44,4.40
2009,04,27,02,45,4.40
2009,04,27,02,46,4.50
2009,04,27,02,47,4.50
2009,04,27,02,48,4.60
2009,04,27,02,49,4.60
2009,04,27,02,50,4.60
2009,04,27,02,51,4.60
2009,04,27,02,52,4.60
2009,04,27,02,53,4.60
2009,04,27,02,54,4.70
2009,04,27,02,55,4.70
2009,04,27,02,56,4.70
2009,04,27,02,57,4.80
2009,04,27,02,58,4.80
2009,04,27,02,59,4.80
2009,04,27,03,00,4.80
2009,04,27,03,01,4.80
2009,04,27,03,02,4.90
2009,04,27,03,03,4.90
2009,04,27,03,04,4.90
2009,04,27,03,05,4.90
2009,04,27,03,06,4.80
2009,04,27,03,07,4.80
2009,04,27,03,08,4.80
2009,04,27,03,09,4.80
2009,04,27,03,10,4.70
2009,04,27,03,11,4.70
2009,04,27,03,12,4.70
2009,04,27,03,13,4.80
2009,04,27,03,14,4.80
2009,04,27,03,15,4.80
2009,04,27,03,16,4.80
2009,04,27,03,17,4.80
2009,04,27,03,18,4.90
2009,04,27,03,19,4.90
2009,04,27,03,20,4.90
2009,04,27,03,21,4.90
2009,04,27,03,22,4.90
2009,04,27,03,23,4.90
2009,04,27,03,24,4.90
2009,04,27,03,25,4.90
2009,04,27,03,26,4.90
2009,04,27,03,27,4.90
2009,04,27,03,28,4.90
2009,04,27,03,29,5.00
2009,04,27,03,30,5.00
2009,04,27,03,31,5.00
2009,04,27,03,32,5.10
2009,04,27,03,33,5.10
2009,04,27,03,34,5.10
2009,04,27,03,35,5.10
2009,04,27,03,36,5.10
2009,04,27,03,37,5.10
2009,04,27,03,38,5.10
2009,04,27,03,39,5.10
2009,04,27,03,40,5.10
2009,04,27,03,41,5.10
2009,04,27,03,42,5.10
2009,04,27,03,43,5.10
2009,04,27,03,44,5.00
2009,04,27,03,45,5.00
2009,04,27,03,46,5.00
2009,04,27,03,47,5.00
2009,04,27,03,48,5.00
2009,04,27,03,49,4.90
2009,04,27,03,50,4.90
2009,04,27,03,51,4.90
2009,04,27,03,52,4.90
2009,04,27,03,53,4.90
2009,04,27,03,54,4.90
2009,04,27,03,55,4.90
2009,04,27,03,56,4.90
2009,04,27,03,57,4.90
2009,04,27,03,58,4.90
2009,04,27,03,59,4.90
2009,04,27,04,00,4.90
2009,04,27,04,01,4.90
2009,04,27,04,02,5.00
2009,04,27,04,03,5.10
2009,04,27,04,04,5.10
2009,04,27,04,05,5.10
2009,04,27,04,06,5.10
2009,04,27,04,07,5.10
2009,04,27,04,08,5.00
2009,04,27,04,09,5.00
2009,04,27,04,10,5.00
2009,04,27,04,11,5.00
2009,04,27,04,12,5.00
2009,04,27,04,13,5.00
2009,04,27,04,14,5.00
2009,04,27,04,15,5.00
2009,04,27,04,16,5.10
2009,04,27,04,17,5.10
2009,04,27,04,18,5.10
2009,04,27,04,19,5.10
2009,04,27,04,20,5.20
2009,04,27,04,21,5.20
2009,04,27,04,22,5.20
2009,04,27,04,23,5.20
2009,04,27,04,24,5.20
2009,04,27,04,25,5.20
2009,04,27,04,26,5.10
2009,04,27,04,27,5.10
2009,04,27,04,28,5.10
2009,04,27,04,29,5.20
2009,04,27,04,30,5.20
2009,04,27,04,31,5.20
2009,04,27,04,32,5.10
2009,04,27,04,33,5.10
2009,04,27,04,34,5.10
2009,04,27,04,35,5.10
2009,04,27,04,36,5.10
2009,04,27,04,37,5.10
2009,04,27,04,38,5.10
2009,04,27,04,39,5.00
2009,04,27,04,40,5.00
2009,04,27,04,41,5.00
2009,04,27,04,42,5.00
2009,04,27,04,43,4.90
2009,04,27,04,44,4.90
2009,04,27,04,45,4.90
2009,04,27,04,46,5.00
2009,04,27,04,47,5.00
2009,04,27,04,48,5.00
2009,04,27,04,49,5.00
2009,04,27,04,50,5.10
2009,04,27,04,51,5.10
2009,04,27,04,52,5.20
2009,04,27,04,53,5.20
2009,04,27,04,54,5.20
2009,04,27,04,55,5.20
2009,04,27,04,56,5.20
2009,04,27,04,57,5.20
2009,04,27,04,58,5.20
2009,04,27,04,59,5.20
2009,04,27,05,00,5.20
2009,04,27,05,01,5.20
2009,04,27,05,02,5.20
2009,04,27,05,03,5.20
2009,04,27,05,04,5.20
2009,04,27,05,05,5.30
2009,04,27,05,06,5.30
2009,04,27,05,07,5.30
2009,04,27,05,08,5.30
2009,04,27,05,09,5.40
2009,04,27,05,10,5.40
2009,04,27,05,11,5.40
2009,04,27,05,12,5.40
2009,04,27,05,13,5.40
2009,04,27,05,14,5.50
2009,04,27,05,15,5.50
2009,04,27,05,16,5.50
2009,04,27,05,17,5.50
2009,04,27,05,18,5.50
2009,04,27,05,19,5.50
2009,04,27,05,20,5.50
2009,04,27,05,21,5.60
2009,04,27,05,22,5.60
2009,04,27,05,23,5.60
2009,04,27,05,24,5.60
2009,04,27,05,25,5.70
2009,04,27,05,26,5.70
2009,04,27,05,27,5.70
2009,04,27,05,28,5.70
2009,04,27,05,29,5.70
2009,04,27,05,30,5.70
2009,04,27,05,31,5.70
2009,04,27,05,32,5.70
2009,04,27,05,33,5.60
2009,04,27,05,34,5.60
2009,04,27,05,35,5.50
2009,04,27,05,36,5.50
2009,04,27,05,37,5.50
2009,04,27,05,38,5.40
2009,04,27,05,39,5.40
2009,04,27,05,40,5.40
2009,04,27,05,41,5.40
2009,04,27,05,42,5.30
2009,04,27,05,43,5.30
2009,04,27,05,44,5.30
2009,04,27,05,45,5.30
2009,04,27,05,46,5.30
2009,04,27,05,47,5.30
2009,04,27,05,48,5.20
2009,04,27,05,49,5.20
2009,04,27,05,50,5.20
2009,04,27,05,51,5.30
2009,04,27,05,52,5.30
2009,04,27,05,53,5.30
2009,04,27,05,54,5.30
2009,04,27,05,55,5.30
2009,04,27,05,56,5.30
2009,04,27,05,57,5.30
2009,04,27,05,58,5.30
2009,04,27,05,59,5.30
2009,04,27,06,00,5.30
2009,04,27,06,01,5.40
2009,04,27,06,02,5.40
2009,04,27,06,03,5.40
2009,04,27,06,04,5.40
2009,04,27,06,05,5.30
2009,04,27,06,06,5.30
2009,04,27,06,07,5.30
2009,04,27,06,08,5.30
2009,04,27,06,09,5.30
2009,04,27,06,10,5.30
2009,04,27,06,11,5.40
2009,04,27,06,12,5.40
2009,04,27,06,13,5.40
2009,04,27,06,14,5.40
2009,04,27,06,15,5.40
2009,04,27,06,16,5.40
2009,04,27,06,17,5.40
2009,04,27,06,18,5.30
2009,04,27,06,19,5.30
2009,04,27,06,20,5.30
2009,04,27,06,21,5.30
2009,04,27,06,22,5.30
2009,04,27,06,23,5.20
2009,04,27,06,24,5.20
2009,04,27,06,25,5.20
2009,04,27,06,26,5.20
2009,04,27,06,27,5.20
2009,04,27,06,28,5.20
2009,04,27,06,29,5.20
2009,04,27,06,30,5.20
2009,04,27,06,31,5.20
2009,04,27,06,32,5.20
2009,04,27,06,33,5.20
2009,04,27,06,34,5.20
2009,04,27,06,35,5.20
2009,04,27,06,36,5.30
2009,04,27,06,37,5.30
2009,04,27,06,38,5.30
2009,04,27,06,39,5.40
2009,04,27,06,40,5.40
2009,04,27,06,41,5.40
2009,04,27,06,42,5.50
2009,04,27,06,43,5.50
2009,04,27,06,44,5.60
2009,04,27,06,45,5.60
2009,04,27,06,46,5.60
2009,04,27,06,47,5.60
2009,04,27,06,48,5.70
2009,04,27,06,49,5.70
2009,04,27,06,50,5.70
2009,04,27,06,51,5.70
2009,04,27,06,52,5.80
2009,04,27,06,53,5.80
2009,04,27,06,54,5.80
2009,04,27,06,55,5.80
2009,04,27,06,56,5.80
2009,04,27,06,57,5.80
2009,04,27,06,58,5.80
2009,04,27,06,59,5.80
2009,04,27,07,00,5.80
2009,04,27,07,01,5.80
2009,04,27,07,02,5.90
2009,04,27,07,03,5.90
2009,04,27,07,04,6.00
2009,04,27,07,05,6.00
2009,04,27,07,06,6.10
2009,04,27,07,07,6.10
2009,04,27,07,08,6.10
2009,04,27,07,09,6.10
2009,04,27,07,10,6.20
2009,04,27,07,11,6.20
2009,04,27,07,12,6.20
2009,04,27,07,13,6.30
2009,04,27,07,14,6.30
2009,04,27,07,15,6.40
2009,04,27,07,16,6.40
2009,04,27,07,17,6.50
2009,04,27,07,18,6.50
2009,04,27,07,19,6.60
2009,04,27,07,20,6.60
2009,04,27,07,21,6.70
2009,04,27,07,22,6.80
2009,04,27,07,23,6.80
2009,04,27,07,24,6.90
2009,04,27,07,25,6.90
2009,04,27,07,26,7.00
2009,04,27,07,27,7.10
2009,04,27,07,28,7.20
2009,04,27,07,29,7.20
2009,04,27,07,30,7.30
2009,04,27,07,31,7.30
2009,04,27,07,32,7.40
2009,04,27,07,33,7.50
2009,04,27,07,34,7.60
2009,04,27,07,35,7.60
2009,04,27,07,36,7.70
2009,04,27,07,37,7.70
2009,04,27,07,38,7.80
2009,04,27,07,39,7.80
2009,04,27,07,40,7.90
2009,04,27,07,41,8.00
2009,04,27,07,42,8.10
2009,04,27,07,43,8.10
2009,04,27,07,44,8.20
2009,04,27,07,45,8.30
2009,04,27,07,46,8.50
2009,04,27,07,47,8.70
2009,04,27,07,48,8.80
2009,04,27,07,49,8.90
2009,04,27,07,50,9.10
2009,04,27,07,51,9.30
2009,04,27,07,52,9.50
2009,04,27,07,53,9.60
2009,04,27,07,54,9.70
2009,04,27,07,55,9.80
2009,04,27,07,56,10.00
2009,04,27,07,57,10.00
2009,04,27,07,58,10.10
2009,04,27,07,59,10.20
2009,04,27,08,00,10.30
2009,04,27,08,01,10.40
2009,04,27,08,02,10.50
2009,04,27,08,03,10.50
2009,04,27,08,04,10.60
2009,04,27,08,05,10.70
2009,04,27,08,06,10.80
2009,04,27,08,07,10.80
2009,04,27,08,08,10.80
2009,04,27,08,09,10.80
2009,04,27,08,10,10.80
2009,04,27,08,11,10.80
2009,04,27,08,12,10.80
2009,04,27,08,13,10.90
2009,04,27,08,14,10.90
2009,04,27,08,15,11.00
2009,04,27,08,16,11.00
2009,04,27,08,17,11.10
2009,04,27,08,18,11.10
2009,04,27,08,19,11.20
2009,04,27,08,20,11.20
2009,04,27,08,21,11.30
2009,04,27,08,22,11.30
2009,04,27,08,23,11.30
2009,04,27,08,24,11.30
2009,04,27,08,25,11.40
2009,04,27,08,26,11.50
2009,04,27,08,27,11.50
2009,04,27,08,28,11.60
2009,04,27,08,29,11.60
2009,04,27,08,30,11.70
2009,04,27,08,31,11.70
2009,04,27,08,32,11.70
2009,04,27,08,33,11.80
2009,04,27,08,34,11.80
2009,04,27,08,35,11.80
2009,04,27,08,36,11.80
2009,04,27,08,37,11.80
2009,04,27,08,38,11.70
2009,04,27,08,39,11.80
2009,04,27,08,40,11.80
2009,04,27,08,41,11.80
2009,04,27,08,42,11.90
2009,04,27,08,43,12.00
2009,04,27,08,44,12.00
2009,04,27,08,45,12.10
2009,04,27,08,46,12.10
2009,04,27,08,47,12.10
2009,04,27,08,48,12.20
2009,04,27,08,49,12.20
2009,04,27,08,50,12.30
2009,04,27,08,51,12.30
2009,04,27,08,52,12.30
2009,04,27,08,53,12.30
2009,04,27,08,54,12.20
2009,04,27,08,55,12.10
2009,04,27,08,56,12.10
2009,04,27,08,57,12.10
2009,04,27,08,58,12.10
2009,04,27,08,59,12.20
2009,04,27,09,00,12.20
2009,04,27,09,01,12.30
2009,04,27,09,02,12.30
2009,04,27,09,03,12.40
2009,04,27,09,04,12.40
2009,04,27,09,05,12.40
2009,04,27,09,06,12.40
2009,04,27,09,07,12.40
2009,04,27,09,08,12.50
2009,04,27,09,09,12.50
2009,04,27,09,10,12.50
2009,04,27,09,11,12.60
2009,04,27,09,12,12.60
2009,04,27,09,13,12.60
2009,04,27,09,14,12.60
2009,04,27,09,15,12.60
2009,04,27,09,16,12.60
2009,04,27,09,17,12.60
2009,04,27,09,18,12.60
2009,04,27,09,19,12.60
2009,04,27,09,20,12.70
2009,04,27,09,21,12.60
2009,04,27,09,22,12.70
2009,04,27,09,23,12.70
2009,04,27,09,24,12.70
2009,04,27,09,25,12.60
2009,04,27,09,26,12.60
2009,04,27,09,27,12.60
2009,04,27,09,28,12.70
2009,04,27,09,29,12.70
2009,04,27,09,30,12.80
2009,04,27,09,31,12.80
2009,04,27,09,32,12.80
2009,04,27,09,33,12.80
2009,04,27,09,34,12.80
2009,04,27,09,35,12.70
2009,04,27,09,36,12.70
2009,04,27,09,37,12.70
2009,04,27,09,38,12.70
2009,04,27,09,39,12.70
2009,04,27,09,40,12.80
2009,04,27,09,41,13.00
2009,04,27,09,42,13.00
2009,04,27,09,43,12.90
2009,04,27,09,44,12.90
2009,04,27,09,45,13.00
2009,04,27,09,46,13.10
2009,04,27,09,47,13.10
2009,04,27,09,48,13.10
2009,04,27,09,49,13.00
2009,04,27,09,50,13.00
2009,04,27,09,51,13.00
2009,04,27,09,52,13.00
2009,04,27,09,53,13.10
2009,04,27,09,54,13.20
2009,04,27,09,55,13.20
2009,04,27,09,56,13.20
2009,04,27,09,57,13.30
2009,04,27,09,58,13.40
2009,04,27,09,59,13.50
2009,04,27,10,00,13.60
2009,04,27,10,01,13.70
2009,04,27,10,02,13.70
2009,04,27,10,03,13.70
2009,04,27,10,04,13.70
2009,04,27,10,05,13.80
2009,04,27,10,06,13.80
2009,04,27,10,07,13.90
2009,04,27,10,08,13.90
2009,04,27,10,09,13.80
2009,04,27,10,10,13.80
2009,04,27,10,11,13.60
2009,04,27,10,12,13.60
2009,04,27,10,13,13.70
2009,04,27,10,14,13.80
2009,04,27,10,15,13.80
2009,04,27,10,16,13.80
2009,04,27,10,17,13.80
2009,04,27,10,18,13.70
2009,04,27,10,19,13.70
2009,04,27,10,20,13.70
2009,04,27,10,21,13.70
2009,04,27,10,22,13.80
2009,04,27,10,23,13.80
2009,04,27,10,24,13.80
2009,04,27,10,25,13.70
2009,04,27,10,26,13.80
2009,04,27,10,27,13.80
2009,04,27,10,28,13.80
2009,04,27,10,29,13.80
2009,04,27,10,30,13.80
2009,04,27,10,31,13.80
2009,04,27,10,32,13.80
2009,04,27,10,33,13.80
2009,04,27,10,34,13.80
2009,04,27,10,35,13.80
2009,04,27,10,36,13.90
2009,04,27,10,37,13.90
2009,04,27,10,38,14.00
2009,04,27,10,39,14.10
2009,04,27,10,40,14.10
2009,04,27,10,41,14.10
2009,04,27,10,42,14.10
2009,04,27,10,43,14.10
2009,04,27,10,44,14.20
2009,04,27,10,45,14.20
2009,04,27,10,46,14.20
2009,04,27,10,47,14.20
2009,04,27,10,48,14.20
2009,04,27,10,49,14.10
2009,04,27,10,50,14.10
2009,04,27,10,51,14.00
2009,04,27,10,52,14.10
2009,04,27,10,53,14.10
2009,04,27,10,54,14.00
2009,04,27,10,55,14.00
2009,04,27,10,56,14.00
2009,04,27,10,57,14.00
2009,04,27,10,58,14.00
2009,04,27,10,59,13.90
2009,04,27,11,00,13.90
2009,04,27,11,01,13.90
2009,04,27,11,02,13.90
2009,04,27,11,03,13.80
2009,04,27,11,04,13.70
2009,04,27,11,05,13.80
2009,04,27,11,06,13.90
2009,04,27,11,07,14.00
2009,04,27,11,08,14.00
2009,04,27,11,09,14.10
2009,04,27,11,10,14.10
2009,04,27,11,11,14.10
2009,04,27,11,12,14.10
2009,04,27,11,13,14.10
2009,04,27,11,14,14.10
2009,04,27,11,15,14.20
2009,04,27,11,16,14.20
2009,04,27,11,17,14.20
2009,04,27,11,18,14.20
2009,04,27,11,19,14.30
2009,04,27,11,20,14.30
2009,04,27,11,21,14.30
2009,04,27,11,22,14.20
2009,04,27,11,23,14.10
2009,04,27,11,24,14.10
2009,04,27,11,25,14.10
2009,04,27,11,26,14.10
2009,04,27,11,27,14.10
2009,04,27,11,28,14.10
2009,04,27,11,29,14.20
2009,04,27,11,30,14.20
2009,04,27,11,31,14.20
2009,04,27,11,32,14.20
2009,04,27,11,33,14.20
2009,04,27,11,34,14.20
2009,04,27,11,35,14.30
2009,04,27,11,36,14.40
2009,04,27,11,37,14.60
2009,04,27,11,38,14.60
2009,04,27,11,39,14.70
2009,04,27,11,40,14.80
2009,04,27,11,41,14.80
2009,04,27,11,42,14.70
2009,04,27,11,43,14.70
2009,04,27,11,44,14.60
2009,04,27,11,45,14.60
2009,04,27,11,46,14.60
2009,04,27,11,47,14.60
2009,04,27,11,48,14.70
2009,04,27,11,49,14.70
2009,04,27,11,50,14.70
2009,04,27,11,51,14.70
2009,04,27,11,52,14.70
2009,04,27,11,53,14.70
2009,04,27,11,54,14.80
2009,04,27,11,55,14.70
2009,04,27,11,56,14.70
2009,04,27,11,57,14.70
2009,04,27,11,58,14.80
2009,04,27,11,59,14.80
2009,04,27,12,00,14.70
2009,04,27,12,01,14.70
2009,04,27,12,02,14.70
2009,04,27,12,03,14.70
2009,04,27,12,04,14.70
2009,04,27,12,05,14.60
2009,04,27,12,06,14.60
2009,04,27,12,07,14.60
2009,04,27,12,08,14.60
2009,04,27,12,09,14.60
2009,04,27,12,10,14.60
2009,04,27,12,11,14.70
2009,04,27,12,12,14.70
2009,04,27,12,13,14.70
2009,04,27,12,14,14.60
2009,04,27,12,15,14.70
2009,04,27,12,16,14.70
2009,04,27,12,17,14.70
2009,04,27,12,18,14.80
2009,04,27,12,19,15.00
2009,04,27,12,20,15.20
2009,04,27,12,21,15.20
2009,04,27,12,22,15.20
2009,04,27,12,23,15.20
2009,04,27,12,24,15.20
2009,04,27,12,25,15.20
2009,04,27,12,26,15.20
2009,04,27,12,27,15.30
2009,04,27,12,28,15.20
2009,04,27,12,29,15.20
2009,04,27,12,30,15.20
2009,04,27,12,31,15.30
2009,04,27,12,32,15.30
2009,04,27,12,33,15.30
2009,04,27,12,34,15.30
2009,04,27,12,35,15.40
2009,04,27,12,36,15.40
2009,04,27,12,37,15.60
2009,04,27,12,38,15.60
2009,04,27,12,39,15.60
2009,04,27,12,40,15.50
2009,04,27,12,41,15.50
2009,04,27,12,42,15.50
2009,04,27,12,43,15.60
2009,04,27,12,44,15.60
2009,04,27,12,45,15.60
2009,04,27,12,46,15.60
2009,04,27,12,47,15.60
2009,04,27,12,48,15.60
2009,04,27,12,49,15.50
2009,04,27,12,50,15.60
2009,04,27,12,51,15.60
2009,04,27,12,52,15.70
2009,04,27,12,53,15.70
2009,04,27,12,54,15.60
2009,04,27,12,55,15.60
2009,04,27,12,56,15.60
2009,04,27,12,57,15.70
2009,04,27,12,58,15.70
2009,04,27,12,59,15.70
2009,04,27,13,00,15.70
2009,04,27,13,01,15.70
2009,04,27,13,02,15.70
2009,04,27,13,03,15.60
2009,04,27,13,04,15.70
2009,04,27,13,05,15.80
2009,04,27,13,06,15.80
2009,04,27,13,07,15.80
2009,04,27,13,08,15.90
2009,04,27,13,09,15.90
2009,04,27,13,10,15.90
2009,04,27,13,11,15.80
2009,04,27,13,12,15.80
2009,04,27,13,13,15.70
2009,04,27,13,14,15.60
2009,04,27,13,15,15.60
2009,04,27,13,16,15.70
2009,04,27,13,17,15.70
2009,04,27,13,18,15.80
2009,04,27,13,19,15.80
2009,04,27,13,20,15.80
2009,04,27,13,21,15.80
2009,04,27,13,22,15.80
2009,04,27,13,23,15.80
2009,04,27,13,24,15.80
2009,04,27,13,25,15.80
2009,04,27,13,26,15.90
2009,04,27,13,27,15.90
2009,04,27,13,28,15.90
2009,04,27,13,29,15.90
2009,04,27,13,30,15.90
2009,04,27,13,31,15.90
2009,04,27,13,32,15.80
2009,04,27,13,33,15.80
2009,04,27,13,34,15.80
2009,04,27,13,35,15.90
2009,04,27,13,36,15.90
2009,04,27,13,37,15.90
2009,04,27,13,38,16.00
2009,04,27,13,39,16.10
2009,04,27,13,40,16.20
2009,04,27,13,41,16.20
2009,04,27,13,42,16.20
2009,04,27,13,43,16.20
2009,04,27,13,44,16.20
2009,04,27,13,45,16.20
2009,04,27,13,46,16.20
2009,04,27,13,47,16.10
2009,04,27,13,48,16.00
2009,04,27,13,49,16.00
2009,04,27,13,50,16.00
2009,04,27,13,51,16.00
2009,04,27,13,52,16.00
2009,04,27,13,53,16.00
2009,04,27,13,54,16.00
2009,04,27,13,55,15.90
2009,04,27,13,56,15.90
2009,04,27,13,57,15.80
2009,04,27,13,58,15.80
2009,04,27,13,59,15.80
2009,04,27,14,00,15.90
2009,04,27,14,01,15.90
2009,04,27,14,02,15.90
2009,04,27,14,03,15.80
2009,04,27,14,04,15.80
2009,04,27,14,05,15.80
2009,04,27,14,06,15.70
2009,04,27,14,07,15.70
2009,04,27,14,08,15.70
2009,04,27,14,09,15.80
2009,04,27,14,10,15.80
2009,04,27,14,11,15.90
2009,04,27,14,12,15.90
2009,04,27,14,13,15.90
2009,04,27,14,14,15.90
2009,04,27,14,15,15.90
2009,04,27,14,16,16.00
2009,04,27,14,17,16.00
2009,04,27,14,18,16.00
2009,04,27,14,19,16.00
2009,04,27,14,20,16.10
2009,04,27,14,21,16.20
2009,04,27,14,22,16.20
2009,04,27,14,23,16.30
2009,04,27,14,24,16.30
2009,04,27,14,25,16.20
2009,04,27,14,26,16.20
2009,04,27,14,27,16.20
2009,04,27,14,28,16.20
2009,04,27,14,29,16.20
2009,04,27,14,30,16.20
2009,04,27,14,31,16.20
2009,04,27,14,32,16.30
2009,04,27,14,33,16.40
2009,04,27,14,34,16.30
2009,04,27,14,35,16.40
2009,04,27,14,36,16.40
2009,04,27,14,37,16.40
2009,04,27,14,38,16.30
2009,04,27,14,39,16.30
2009,04,27,14,40,16.20
2009,04,27,14,41,16.20
2009,04,27,14,42,16.20
2009,04,27,14,43,16.30
2009,04,27,14,44,16.30
2009,04,27,14,45,16.20
2009,04,27,14,46,16.20
2009,04,27,14,47,16.30
2009,04,27,14,48,16.40
2009,04,27,14,49,16.40
2009,04,27,14,50,16.30
2009,04,27,14,51,16.30
2009,04,27,14,52,16.30
2009,04,27,14,53,16.30
2009,04,27,14,54,16.30
2009,04,27,14,55,16.30
2009,04,27,14,56,16.40
2009,04,27,14,57,16.40
2009,04,27,14,58,16.40
2009,04,27,14,59,16.40
2009,04,27,15,00,16.50
2009,04,27,15,01,16.40
2009,04,27,15,02,16.40
2009,04,27,15,03,16.40
2009,04,27,15,04,16.40
2009,04,27,15,05,16.40
2009,04,27,15,06,16.40
2009,04,27,15,07,16.40
2009,04,27,15,08,16.50
2009,04,27,15,09,16.50
2009,04,27,15,10,16.60
2009,04,27,15,11,16.60
2009,04,27,15,12,16.70
2009,04,27,15,13,16.80
2009,04,27,15,14,16.80
2009,04,27,15,15,16.80
2009,04,27,15,16,16.80
2009,04,27,15,17,16.80
2009,04,27,15,18,16.70
2009,04,27,15,19,16.60
2009,04,27,15,20,16.60
2009,04,27,15,21,16.50
2009,04,27,15,22,16.40
2009,04,27,15,23,16.40
2009,04,27,15,24,16.30
2009,04,27,15,25,16.30
2009,04,27,15,26,16.20
2009,04,27,15,27,16.20
2009,04,27,15,28,16.20
2009,04,27,15,29,16.10
2009,04,27,15,30,16.10
2009,04,27,15,31,16.10
2009,04,27,15,32,16.10
2009,04,27,15,33,16.20
2009,04,27,15,34,16.20
2009,04,27,15,35,16.20
2009,04,27,15,36,16.20
2009,04,27,15,37,16.20
2009,04,27,15,38,16.20
2009,04,27,15,39,16.30
2009,04,27,15,40,16.40
2009,04,27,15,41,16.50
2009,04,27,15,42,16.60
2009,04,27,15,43,16.70
2009,04,27,15,44,16.70
2009,04,27,15,45,16.60
2009,04,27,15,46,16.50
2009,04,27,15,47,16.30
2009,04,27,15,48,16.30
2009,04,27,15,49,16.30
2009,04,27,15,50,16.50
2009,04,27,15,51,16.60
2009,04,27,15,52,16.70
2009,04,27,15,53,16.70
2009,04,27,15,54,16.60
2009,04,27,15,55,16.60
2009,04,27,15,56,16.60
2009,04,27,15,57,16.60
2009,04,27,15,58,16.60
2009,04,27,15,59,16.60
2009,04,27,16,00,16.60
2009,04,27,16,01,16.60
2009,04,27,16,02,16.50
2009,04,27,16,03,16.50
2009,04,27,16,04,16.60
2009,04,27,16,05,16.70
2009,04,27,16,06,16.80
2009,04,27,16,07,16.90
2009,04,27,16,08,17.00
2009,04,27,16,09,17.10
2009,04,27,16,10,17.10
2009,04,27,16,11,17.10
2009,04,27,16,12,17.10
2009,04,27,16,13,17.10
2009,04,27,16,14,17.10
2009,04,27,16,15,17.10
2009,04,27,16,16,17.10
2009,04,27,16,17,17.10
2009,04,27,16,18,17.10
2009,04,27,16,19,17.10
2009,04,27,16,20,17.00
2009,04,27,16,21,17.00
2009,04,27,16,22,17.10
2009,04,27,16,23,17.00
2009,04,27,16,24,16.90
2009,04,27,16,25,16.90
2009,04,27,16,26,16.90
2009,04,27,16,27,16.90
2009,04,27,16,28,16.90
2009,04,27,16,29,16.90
2009,04,27,16,30,16.90
2009,04,27,16,31,17.00
2009,04,27,16,32,17.00
2009,04,27,16,33,17.00
2009,04,27,16,34,16.90
2009,04,27,16,35,16.90
2009,04,27,16,36,16.80
2009,04,27,16,37,16.80
2009,04,27,16,38,16.60
2009,04,27,16,39,16.60
2009,04,27,16,40,16.60
2009,04,27,16,41,16.60
2009,04,27,16,42,16.60
2009,04,27,16,43,16.70
2009,04,27,16,44,16.80
2009,04,27,16,45,16.80
2009,04,27,16,46,16.80
2009,04,27,16,47,16.80
2009,04,27,16,48,16.70
2009,04,27,16,49,16.50
2009,04,27,16,50,16.50
2009,04,27,16,51,16.50
2009,04,27,16,52,16.50
2009,04,27,16,53,16.60
2009,04,27,16,54,16.60
2009,04,27,16,55,16.50
2009,04,27,16,56,16.40
2009,04,27,16,57,16.40
2009,04,27,16,58,16.30
2009,04,27,16,59,16.30
2009,04,27,17,00,16.30
2009,04,27,17,01,16.40
2009,04,27,17,02,16.40
2009,04,27,17,03,16.60
2009,04,27,17,04,16.70
2009,04,27,17,05,16.70
2009,04,27,17,06,16.80
2009,04,27,17,07,16.90
2009,04,27,17,08,16.90
2009,04,27,17,09,16.90
2009,04,27,17,10,16.80
2009,04,27,17,11,16.80
2009,04,27,17,12,16.80
2009,04,27,17,13,16.80
2009,04,27,17,14,16.80
2009,04,27,17,15,16.90
2009,04,27,17,16,16.90
2009,04,27,17,17,16.90
2009,04,27,17,18,16.90
2009,04,27,17,19,16.90
2009,04,27,17,20,16.80
2009,04,27,17,21,16.80
2009,04,27,17,22,16.70
2009,04,27,17,23,16.70
2009,04,27,17,24,16.60
2009,04,27,17,25,16.70
2009,04,27,17,26,16.70
2009,04,27,17,27,16.70
2009,04,27,17,28,16.70
2009,04,27,17,29,16.70
2009,04,27,17,30,16.60
2009,04,27,17,31,16.60
2009,04,27,17,32,16.60
2009,04,27,17,33,16.60
2009,04,27,17,34,16.70
2009,04,27,17,35,16.70
2009,04,27,17,36,16.70
2009,04,27,17,37,16.70
2009,04,27,17,38,16.70
2009,04,27,17,39,16.80
2009,04,27,17,40,16.80